Time,TemperatureF,DewpointF,PressureIn,WindDirection,WindDirectionDegrees,WindSpeedMPH,WindSpeedGustMPH,Humidity,HourlyPrecipIn,Conditions,Clouds,dailyrainin,SoftwareType,DateUTC
2013-08-05 00:01:00,64.6,58.3,30.02,SSE,153,0.0,0.0,80,0.00,,,0.00,VWS V14.01,2013-08-05 04:01:00,
2013-08-05 00:02:00,64.6,58.3,30.02,SSE,153,0.0,0.0,80,0.00,,,0.00,VWS V14.01,2013-08-05 04:02:00,
2013-08-05 00:07:00,64.5,58.2,30.02,SSE,153,0.0,0.0,80,0.00,,,0.00,VWS V14.01,2013-08-05 04:07:00,
2013-08-05 00:11:00,64.4,58.1,30.02,SSE,153,0.0,0.0,80,0.00,,,0.00,VWS V14.01,2013-08-05 04:11:00,
2013-08-05 00:17:00,64.3,58.0,30.02,SSE,153,0.0,0.0,80,0.00,,,0.00,VWS V14.01,2013-08-05 04:17:00,
2013-08-05 00:22:00,64.2,57.9,30.02,SSE,153,0.0,0.0,80,0.00,,,0.00,VWS V14.01,2013-08-05 04:22:00,
2013-08-05 00:27:00,64.1,57.8,30.02,SSE,153,0.0,0.0,80,0.00,,,0.00,VWS V14.01,2013-08-05 04:27:00,
2013-08-05 00:32:00,64.1,58.2,30.03,SSE,153,0.0,0.0,81,0.00,,,0.00,VWS V14.01,2013-08-05 04:32:00,
2013-08-05 00:37:00,64.0,57.7,30.03,SSE,153,0.0,0.0,80,0.00,,,0.00,VWS V14.01,2013-08-05 04:37:00,
2013-08-05 00:42:00,63.9,58.0,30.03,SSE,153,0.0,0.0,81,0.00,,,0.00,VWS V14.01,2013-08-05 04:42:00,
2013-08-05 00:47:00,63.8,57.9,30.03,SSE,153,0.0,0.0,81,0.00,,,0.00,VWS V14.01,2013-08-05 04:47:00,
2013-08-05 00:52:00,63.8,58.5,30.03,SSE,153,0.0,0.0,83,0.00,,,0.00,VWS V14.01,2013-08-05 04:52:00,
2013-08-05 00:57:00,63.8,58.9,30.03,SSE,153,0.0,0.0,84,0.00,,,0.00,VWS V14.01,2013-08-05 04:57:00,
2013-08-05 01:02:00,63.7,58.5,30.03,SSE,153,0.0,0.0,83,0.00,,,0.00,VWS V14.01,2013-08-05 05:02:00,
2013-08-05 01:07:00,63.7,58.5,30.02,SSE,153,0.0,0.0,83,0.00,,,0.00,VWS V14.01,2013-08-05 05:07:00,
2013-08-05 01:12:00,63.6,58.3,30.02,SSE,153,0.0,0.0,83,0.00,,,0.00,VWS V14.01,2013-08-05 05:12:00,
2013-08-05 01:17:00,63.5,58.2,30.02,SSE,153,0.0,0.0,83,0.00,,,0.00,VWS V14.01,2013-08-05 05:17:00,
2013-08-05 01:22:00,63.4,58.2,30.02,SSE,153,0.0,0.0,83,0.00,,,0.00,VWS V14.01,2013-08-05 05:22:00,
2013-08-05 01:26:00,63.3,58.1,30.02,SSE,153,0.0,0.0,83,0.00,,,0.00,VWS V14.01,2013-08-05 05:26:00,
2013-08-05 01:31:00,63.2,58.0,30.02,SSE,153,0.0,0.0,83,0.00,,,0.00,VWS V14.01,2013-08-05 05:31:00,
2013-08-05 01:36:00,63.1,58.2,30.02,SSE,153,0.0,0.0,84,0.00,,,0.00,VWS V14.01,2013-08-05 05:36:00,
2013-08-05 01:41:00,63.1,58.2,30.02,SSE,153,0.0,0.0,84,0.00,,,0.00,VWS V14.01,2013-08-05 05:41:00,
2013-08-05 01:47:00,63.1,58.5,30.02,SSE,153,0.0,0.0,85,0.00,,,0.00,VWS V14.01,2013-08-05 05:47:00,
2013-08-05 01:52:00,63.0,58.4,30.02,SSE,153,0.0,0.0,85,0.00,,,0.00,VWS V14.01,2013-08-05 05:52:00,
2013-08-05 01:57:00,63.0,58.1,30.02,SSE,153,0.0,0.0,84,0.00,,,0.00,VWS V14.01,2013-08-05 05:57:00,
2013-08-05 02:02:00,62.9,58.0,30.02,SSE,153,0.0,0.0,84,0.00,,,0.00,VWS V14.01,2013-08-05 06:02:00,
2013-08-05 02:07:00,62.8,57.9,30.01,SSE,153,0.0,0.0,84,0.00,,,0.00,VWS V14.01,2013-08-05 06:07:00,
2013-08-05 02:12:00,62.8,57.6,30.01,SSE,153,0.0,0.0,83,0.00,,,0.00,VWS V14.01,2013-08-05 06:12:00,
2013-08-05 02:17:00,62.8,57.6,30.01,SSE,153,0.0,0.0,83,0.00,,,0.00,VWS V14.01,2013-08-05 06:17:00,
2013-08-05 02:22:00,62.8,57.9,30.01,SSE,153,0.0,0.0,84,0.00,,,0.00,VWS V14.01,2013-08-05 06:22:00,
2013-08-05 02:27:00,62.8,57.6,30.02,SSE,153,0.0,0.0,83,0.00,,,0.00,VWS V14.01,2013-08-05 06:27:00,
2013-08-05 02:32:00,62.8,57.6,30.02,SSE,153,0.0,0.0,83,0.00,,,0.00,VWS V14.01,2013-08-05 06:32:00,
2013-08-05 02:37:00,62.8,57.2,30.02,SSE,153,0.0,0.0,82,0.00,,,0.00,VWS V14.01,2013-08-05 06:37:00,
2013-08-05 02:42:00,62.8,57.6,30.02,SSE,153,0.0,0.0,83,0.00,,,0.00,VWS V14.01,2013-08-05 06:42:00,
2013-08-05 02:47:00,62.8,57.6,30.02,SSE,153,0.0,0.0,83,0.00,,,0.00,VWS V14.01,2013-08-05 06:47:00,
2013-08-05 02:52:00,62.8,57.6,30.02,SSE,153,0.0,0.0,83,0.00,,,0.00,VWS V14.01,2013-08-05 06:52:00,
2013-08-05 02:57:00,62.8,57.6,30.03,SSE,153,0.0,0.0,83,0.00,,,0.00,VWS V14.01,2013-08-05 06:57:00,
2013-08-05 03:02:00,62.8,57.6,30.03,SSE,153,0.0,0.0,83,0.00,,,0.00,VWS V14.01,2013-08-05 07:02:00,
2013-08-05 03:07:00,62.8,57.9,30.03,SSE,153,0.0,0.0,84,0.00,,,0.00,VWS V14.01,2013-08-05 07:07:00,
2013-08-05 03:12:00,62.7,57.8,30.03,SSE,153,0.0,0.0,84,0.00,,,0.00,VWS V14.01,2013-08-05 07:12:00,
2013-08-05 03:17:00,62.6,57.7,30.03,SSE,153,0.0,0.0,84,0.00,,,0.00,VWS V14.01,2013-08-05 07:17:00,
2013-08-05 03:22:00,62.6,57.7,30.03,SSE,153,0.0,0.0,84,0.00,,,0.00,VWS V14.01,2013-08-05 07:22:00,
2013-08-05 03:27:00,62.5,57.6,30.03,SSE,153,0.0,0.0,84,0.00,,,0.00,VWS V14.01,2013-08-05 07:27:00,
2013-08-05 03:32:00,62.5,57.3,30.03,SSE,153,0.0,0.0,83,0.00,,,0.00,VWS V14.01,2013-08-05 07:32:00,
2013-08-05 03:37:00,62.4,57.2,30.04,SSE,153,0.0,0.0,83,0.00,,,0.00,VWS V14.01,2013-08-05 07:37:00,
2013-08-05 03:42:00,62.4,57.2,30.04,SSE,153,0.0,0.0,83,0.00,,,0.00,VWS V14.01,2013-08-05 07:42:00,
2013-08-05 03:47:00,62.4,57.2,30.04,SSE,153,0.0,0.0,83,0.00,,,0.00,VWS V14.01,2013-08-05 07:47:00,
2013-08-05 03:52:00,62.4,57.2,30.04,SSE,153,0.0,0.0,83,0.00,,,0.00,VWS V14.01,2013-08-05 07:52:00,
2013-08-05 03:57:00,62.3,57.1,30.04,SSE,153,0.0,0.0,83,0.00,,,0.00,VWS V14.01,2013-08-05 07:57:00,
2013-08-05 04:02:00,62.3,57.1,30.04,SSE,153,0.0,0.0,83,0.00,,,0.00,VWS V14.01,2013-08-05 08:02:00,
2013-08-05 04:07:00,62.2,57.0,30.04,SSE,153,0.0,0.0,83,0.00,,,0.00,VWS V14.01,2013-08-05 08:07:00,
2013-08-05 04:12:00,62.1,56.9,30.04,SSE,153,0.0,0.0,83,0.00,,,0.00,VWS V14.01,2013-08-05 08:12:00,
2013-08-05 04:17:00,61.9,56.7,30.04,SSE,153,0.0,0.0,83,0.00,,,0.00,VWS V14.01,2013-08-05 08:17:00,
2013-08-05 04:22:00,61.8,56.6,30.04,SSE,153,0.0,0.0,83,0.00,,,0.00,VWS V14.01,2013-08-05 08:22:00,
2013-08-05 04:27:00,61.7,56.8,30.04,SSE,153,0.0,0.0,84,0.00,,,0.00,VWS V14.01,2013-08-05 08:27:00,
2013-08-05 04:32:00,61.5,57.0,30.04,SSE,153,0.0,0.0,85,0.00,,,0.00,VWS V14.01,2013-08-05 08:32:00,
2013-08-05 04:37:00,61.4,56.9,30.04,SSE,153,0.0,0.0,85,0.00,,,0.00,VWS V14.01,2013-08-05 08:37:00,
2013-08-05 04:42:00,61.3,57.1,30.04,SSE,153,0.0,0.0,86,0.00,,,0.00,VWS V14.01,2013-08-05 08:42:00,
2013-08-05 04:47:00,61.1,56.6,30.04,SSE,153,0.0,0.0,85,0.00,,,0.00,VWS V14.01,2013-08-05 08:47:00,
2013-08-05 04:52:00,61.0,56.8,30.04,SSE,153,0.0,0.0,86,0.00,,,0.00,VWS V14.01,2013-08-05 08:52:00,
2013-08-05 04:57:00,60.9,56.7,30.04,SSE,153,0.0,0.0,86,0.00,,,0.00,VWS V14.01,2013-08-05 08:57:00,
2013-08-05 05:03:00,60.9,56.7,30.05,SSE,153,0.0,0.0,86,0.00,,,0.00,VWS V14.01,2013-08-05 09:03:00,
2013-08-05 05:08:00,60.8,56.6,30.04,SSE,153,0.0,0.0,86,0.00,,,0.00,VWS V14.01,2013-08-05 09:08:00,
2013-08-05 05:12:00,60.8,56.6,30.05,SSE,153,0.0,0.0,86,0.00,,,0.00,VWS V14.01,2013-08-05 09:12:00,
2013-08-05 05:18:00,60.7,56.5,30.05,SSE,153,0.0,0.0,86,0.00,,,0.00,VWS V14.01,2013-08-05 09:18:00,
2013-08-05 05:23:00,60.7,56.5,30.05,SSE,153,0.0,0.0,86,0.00,,,0.00,VWS V14.01,2013-08-05 09:23:00,
2013-08-05 05:28:00,60.6,56.4,30.05,SSE,153,0.0,0.0,86,0.00,,,0.00,VWS V14.01,2013-08-05 09:28:00,
2013-08-05 05:33:00,60.5,56.3,30.05,SSE,153,0.0,0.0,86,0.00,,,0.00,VWS V14.01,2013-08-05 09:33:00,
2013-08-05 05:38:00,60.5,56.3,30.05,SSE,153,0.0,0.0,86,0.00,,,0.00,VWS V14.01,2013-08-05 09:38:00,
2013-08-05 05:44:00,60.5,56.3,30.06,SSE,153,0.0,0.0,86,0.00,,,0.00,VWS V14.01,2013-08-05 09:44:00,
2013-08-05 05:49:00,60.4,56.2,30.06,SSE,153,0.0,0.0,86,0.00,,,0.00,VWS V14.01,2013-08-05 09:49:00,
2013-08-05 05:54:00,60.4,56.5,30.06,SSE,153,0.0,0.0,87,0.00,,,0.00,VWS V14.01,2013-08-05 09:54:00,
2013-08-05 05:58:00,60.4,56.5,30.06,SSE,153,0.0,0.0,87,0.00,,,0.00,VWS V14.01,2013-08-05 09:58:00,
2013-08-05 06:04:00,60.4,56.5,30.06,SSE,153,0.0,0.0,87,0.00,,,0.00,VWS V14.01,2013-08-05 10:04:00,
2013-08-05 06:08:00,60.3,56.4,30.06,SSE,153,0.0,0.0,87,0.00,,,0.00,VWS V14.01,2013-08-05 10:08:00,
2013-08-05 06:14:00,60.3,56.4,30.07,SSE,153,0.0,0.0,87,0.00,,,0.00,VWS V14.01,2013-08-05 10:14:00,
2013-08-05 06:19:00,60.3,56.4,30.07,SSE,153,0.0,0.0,87,0.00,,,0.00,VWS V14.01,2013-08-05 10:19:00,
2013-08-05 06:24:00,60.2,56.3,30.07,SSE,153,0.0,0.0,87,0.00,,,0.00,VWS V14.01,2013-08-05 10:24:00,
2013-08-05 06:29:00,60.2,56.3,30.07,SSE,153,0.0,0.0,87,0.00,,,0.00,VWS V14.01,2013-08-05 10:29:00,
2013-08-05 06:33:00,60.1,56.2,30.07,SSE,153,0.0,0.0,87,0.00,,,0.00,VWS V14.01,2013-08-05 10:33:00,
2013-08-05 06:38:00,60.1,56.2,30.07,SSE,153,0.0,0.0,87,0.00,,,0.00,VWS V14.01,2013-08-05 10:38:00,
2013-08-05 06:43:00,60.0,56.4,30.07,SSE,153,0.0,0.0,88,0.00,,,0.00,VWS V14.01,2013-08-05 10:43:00,
2013-08-05 06:49:00,60.0,56.4,30.07,SSE,153,0.0,0.0,88,0.00,,,0.00,VWS V14.01,2013-08-05 10:49:00,
2013-08-05 06:54:00,60.0,56.4,30.07,SSE,153,0.0,0.0,88,0.00,,,0.00,VWS V14.01,2013-08-05 10:54:00,
2013-08-05 06:59:00,60.1,56.5,30.07,SSE,153,0.0,0.0,88,0.00,,,0.00,VWS V14.01,2013-08-05 10:59:00,
2013-08-05 07:04:00,60.2,56.6,30.08,SSE,153,0.0,0.0,88,0.00,,,0.00,VWS V14.01,2013-08-05 11:04:00,
2013-08-05 07:09:00,60.2,56.6,30.08,SSE,153,0.0,0.0,88,0.00,,,0.00,VWS V14.01,2013-08-05 11:09:00,
2013-08-05 07:14:00,60.4,56.8,30.08,SSE,153,0.0,0.0,88,0.00,,,0.00,VWS V14.01,2013-08-05 11:14:00,
2013-08-05 07:18:00,60.6,57.0,30.08,SSE,153,0.0,0.0,88,0.00,,,0.00,VWS V14.01,2013-08-05 11:18:00,
2013-08-05 07:24:00,60.8,57.2,30.08,SSE,153,0.0,0.0,88,0.00,,,0.00,VWS V14.01,2013-08-05 11:24:00,
2013-08-05 07:29:00,61.1,57.5,30.09,SSE,153,0.0,0.0,88,0.00,,,0.00,VWS V14.01,2013-08-05 11:29:00,
2013-08-05 07:34:00,61.3,57.7,30.09,SSE,153,0.0,0.0,88,0.00,,,0.00,VWS V14.01,2013-08-05 11:34:00,
2013-08-05 07:38:00,61.6,57.7,30.09,SSE,153,0.0,0.0,87,0.00,,,0.00,VWS V14.01,2013-08-05 11:38:00,
2013-08-05 07:44:00,61.9,58.0,30.09,SSE,153,0.0,0.0,87,0.00,,,0.00,VWS V14.01,2013-08-05 11:44:00,
2013-08-05 07:48:00,62.2,58.3,30.09,SSE,153,0.0,0.0,87,0.00,,,0.00,VWS V14.01,2013-08-05 11:48:00,
2013-08-05 07:54:00,62.5,58.3,30.09,SSE,153,0.0,0.0,86,0.00,,,0.00,VWS V14.01,2013-08-05 11:54:00,
2013-08-05 07:58:00,62.8,58.6,30.09,SSE,153,0.0,0.0,86,0.00,,,0.00,VWS V14.01,2013-08-05 11:58:00,
2013-08-05 08:04:00,63.2,58.6,30.09,SSE,153,0.0,0.0,85,0.00,,,0.00,VWS V14.01,2013-08-05 12:04:00,
2013-08-05 08:08:00,63.5,58.9,30.09,SSE,153,0.0,0.0,85,0.00,,,0.00,VWS V14.01,2013-08-05 12:08:00,
2013-08-05 08:14:00,63.9,59.0,30.10,SSE,153,0.0,0.0,84,0.00,,,0.00,VWS V14.01,2013-08-05 12:14:00,
2013-08-05 08:19:00,64.2,58.9,30.09,SSE,153,0.0,0.0,83,0.00,,,0.00,VWS V14.01,2013-08-05 12:19:00,
2013-08-05 08:23:00,64.6,59.7,30.10,SSE,153,0.0,0.0,84,0.00,,,0.00,VWS V14.01,2013-08-05 12:23:00,
2013-08-05 08:29:00,65.0,59.4,30.10,SSE,153,0.0,0.0,82,0.00,,,0.00,VWS V14.01,2013-08-05 12:29:00,
2013-08-05 08:34:00,65.4,59.4,30.10,SSE,153,0.0,0.0,81,0.00,,,0.00,VWS V14.01,2013-08-05 12:34:00,
2013-08-05 08:39:00,65.7,59.7,30.10,SSE,153,0.0,0.0,81,0.00,,,0.00,VWS V14.01,2013-08-05 12:39:00,
2013-08-05 08:43:00,66.1,59.8,30.10,SSE,153,0.0,0.0,80,0.00,,,0.00,VWS V14.01,2013-08-05 12:43:00,
2013-08-05 08:49:00,66.6,59.9,30.09,SSE,153,0.0,0.0,79,0.00,,,0.00,VWS V14.01,2013-08-05 12:49:00,
2013-08-05 08:54:00,67.0,59.2,30.10,SSE,153,0.0,0.0,76,0.00,,,0.00,VWS V14.01,2013-08-05 12:54:00,
2013-08-05 08:59:00,67.4,60.3,30.09,SSE,153,0.0,0.0,78,0.00,,,0.00,VWS V14.01,2013-08-05 12:59:00,
2013-08-05 09:04:00,67.8,59.6,30.09,SSE,153,0.0,0.0,75,0.00,,,0.00,VWS V14.01,2013-08-05 13:04:00,
2013-08-05 09:09:00,68.2,58.8,30.09,ENE,61,0.0,1.0,72,0.00,,,0.00,VWS V14.01,2013-08-05 13:09:00,
2013-08-05 09:14:00,68.7,58.9,30.09,NE,46,2.0,4.0,71,0.00,,,0.00,VWS V14.01,2013-08-05 13:14:00,
2013-08-05 09:18:00,69.4,59.2,30.10,NE,43,0.0,2.0,70,0.00,,,0.00,VWS V14.01,2013-08-05 13:18:00,
2013-08-05 09:24:00,70.1,59.5,30.10,NNE,30,0.0,2.0,69,0.00,,,0.00,VWS V14.01,2013-08-05 13:24:00,
2013-08-05 09:28:00,70.7,60.5,30.10,NNE,30,0.0,0.0,70,0.00,,,0.00,VWS V14.01,2013-08-05 13:28:00,
2013-08-05 09:33:00,71.3,60.2,30.10,NE,34,1.0,1.0,68,0.00,,,0.00,VWS V14.01,2013-08-05 13:33:00,
2013-08-05 09:39:00,72.1,60.1,30.10,NE,43,0.0,0.0,66,0.00,,,0.00,VWS V14.01,2013-08-05 13:39:00,
2013-08-05 09:44:00,72.6,60.6,30.10,NE,43,0.0,0.0,66,0.00,,,0.00,VWS V14.01,2013-08-05 13:44:00,
2013-08-05 09:48:00,72.8,59.9,30.10,NE,43,0.0,1.0,64,0.00,,,0.00,VWS V14.01,2013-08-05 13:48:00,
2013-08-05 09:53:00,72.9,60.5,30.09,NE,43,0.0,1.0,65,0.00,,,0.00,VWS V14.01,2013-08-05 13:53:00,
2013-08-05 09:59:00,72.9,60.0,30.09,NNE,21,2.0,5.0,64,0.00,,,0.00,VWS V14.01,2013-08-05 13:59:00,
2013-08-05 10:04:00,73.1,58.9,30.09,NE,44,2.0,2.0,61,0.00,,,0.00,VWS V14.01,2013-08-05 14:04:00,
2013-08-05 10:08:00,73.4,58.7,30.09,NNE,13,4.0,7.0,60,0.00,,,0.00,VWS V14.01,2013-08-05 14:08:00,
2013-08-05 10:14:00,73.4,59.2,30.09,NE,48,0.0,2.0,61,0.00,,,0.00,VWS V14.01,2013-08-05 14:14:00,
2013-08-05 10:19:00,73.6,59.3,30.09,NE,38,2.0,5.0,61,0.00,,,0.00,VWS V14.01,2013-08-05 14:19:00,
2013-08-05 10:24:00,73.7,59.0,30.09,NNE,33,0.0,0.0,60,0.00,,,0.00,VWS V14.01,2013-08-05 14:24:00,
2013-08-05 10:29:00,73.8,59.1,30.09,NNE,26,4.0,4.0,60,0.00,,,0.00,VWS V14.01,2013-08-05 14:29:00,
2013-08-05 10:34:00,73.8,59.1,30.09,ENE,71,0.0,0.0,60,0.00,,,0.00,VWS V14.01,2013-08-05 14:34:00,
2013-08-05 10:39:00,73.8,59.1,30.09,NNE,30,0.0,0.0,60,0.00,,,0.00,VWS V14.01,2013-08-05 14:39:00,
2013-08-05 10:44:00,74.2,59.4,30.09,NE,47,0.0,2.0,60,0.00,,,0.00,VWS V14.01,2013-08-05 14:44:00,
2013-08-05 10:49:00,74.5,59.2,30.09,ESE,114,0.0,1.0,59,0.00,,,0.00,VWS V14.01,2013-08-05 14:49:00,
2013-08-05 10:54:00,74.6,59.8,30.09,ESE,114,0.0,0.0,60,0.00,,,0.00,VWS V14.01,2013-08-05 14:54:00,
2013-08-05 10:59:00,74.7,59.0,30.09,East,83,0.0,1.0,58,0.00,,,0.00,VWS V14.01,2013-08-05 14:59:00,
2013-08-05 11:04:00,75.1,59.8,30.10,ESE,103,2.0,2.0,59,0.00,,,0.00,VWS V14.01,2013-08-05 15:04:00,
2013-08-05 11:09:00,75.5,58.7,30.10,ENE,62,0.0,0.0,56,0.00,,,0.00,VWS V14.01,2013-08-05 15:09:00,
2013-08-05 11:14:00,75.5,59.7,30.09,ENE,62,0.0,0.0,58,0.00,,,0.00,VWS V14.01,2013-08-05 15:14:00,
2013-08-05 11:19:00,75.1,58.8,30.10,ENE,62,0.0,0.0,57,0.00,,,0.00,VWS V14.01,2013-08-05 15:19:00,
2013-08-05 11:23:00,74.6,59.3,30.10,NE,47,0.0,1.0,59,0.00,,,0.00,VWS V14.01,2013-08-05 15:23:00,
2013-08-05 11:29:00,74.5,59.2,30.10,NE,47,0.0,0.0,59,0.00,,,0.00,VWS V14.01,2013-08-05 15:29:00,
2013-08-05 11:34:00,74.5,59.2,30.10,NE,47,0.0,1.0,59,0.00,,,0.00,VWS V14.01,2013-08-05 15:34:00,
2013-08-05 11:39:00,74.6,59.3,30.10,NE,47,0.0,2.0,59,0.00,,,0.00,VWS V14.01,2013-08-05 15:39:00,
2013-08-05 11:44:00,74.8,59.5,30.10,NE,55,0.0,1.0,59,0.00,,,0.00,VWS V14.01,2013-08-05 15:44:00,
2013-08-05 11:48:00,74.9,59.6,30.10,NE,55,0.0,0.0,59,0.00,,,0.00,VWS V14.01,2013-08-05 15:48:00,
2013-08-05 11:54:00,75.1,59.3,30.10,NE,55,0.0,0.0,58,0.00,,,0.00,VWS V14.01,2013-08-05 15:54:00,
2013-08-05 11:59:00,75.2,60.4,30.10,NE,55,0.0,0.0,60,0.00,,,0.00,VWS V14.01,2013-08-05 15:59:00,
2013-08-05 12:05:00,75.1,60.3,30.09,ENE,58,2.0,2.0,60,0.00,,,0.00,VWS V14.01,2013-08-05 16:05:00,
2013-08-05 12:10:00,75.2,59.9,30.09,SSW,200,0.0,2.0,59,0.00,,,0.00,VWS V14.01,2013-08-05 16:10:00,
2013-08-05 12:15:00,75.2,60.4,30.09,SSW,200,0.0,0.0,60,0.00,,,0.00,VWS V14.01,2013-08-05 16:15:00,
2013-08-05 12:19:00,75.0,59.2,30.09,NE,42,1.0,5.0,58,0.00,,,0.00,VWS V14.01,2013-08-05 16:19:00,
2013-08-05 12:25:00,74.6,59.3,30.09,NE,54,1.0,1.0,59,0.00,,,0.00,VWS V14.01,2013-08-05 16:25:00,
2013-08-05 12:30:00,74.4,60.1,30.08,NE,54,1.0,2.0,61,0.00,,,0.00,VWS V14.01,2013-08-05 16:30:00,
2013-08-05 12:35:00,74.5,59.2,30.08,NNE,20,0.0,1.0,59,0.00,,,0.00,VWS V14.01,2013-08-05 16:35:00,
2013-08-05 12:39:00,74.6,59.3,30.08,ENE,69,1.0,1.0,59,0.00,,,0.00,VWS V14.01,2013-08-05 16:39:00,
2013-08-05 12:45:00,74.5,59.2,30.08,ENE,69,0.0,0.0,59,0.00,,,0.00,VWS V14.01,2013-08-05 16:45:00,
2013-08-05 12:50:00,74.4,59.6,30.08,ENE,69,0.0,0.0,60,0.00,,,0.00,VWS V14.01,2013-08-05 16:50:00,
2013-08-05 12:55:00,74.3,60.5,30.08,ENE,69,0.0,1.0,62,0.00,,,0.00,VWS V14.01,2013-08-05 16:55:00,
2013-08-05 13:00:00,74.2,60.8,30.07,ENE,69,0.0,0.0,63,0.00,,,0.00,VWS V14.01,2013-08-05 17:00:00,
2013-08-05 13:05:00,74.4,60.1,30.07,ENE,59,0.0,1.0,61,0.00,,,0.00,VWS V14.01,2013-08-05 17:05:00,
2013-08-05 13:10:00,74.9,60.1,30.07,SSE,163,0.0,0.0,60,0.00,,,0.00,VWS V14.01,2013-08-05 17:10:00,
2013-08-05 13:15:00,75.2,59.9,30.07,SSE,148,0.0,0.0,59,0.00,,,0.00,VWS V14.01,2013-08-05 17:15:00,
2013-08-05 13:21:00,75.3,60.5,30.07,SSE,167,0.0,2.0,60,0.00,,,0.00,VWS V14.01,2013-08-05 17:21:00,
2013-08-05 13:26:00,75.1,59.8,30.07,South,174,0.0,0.0,59,0.00,,,0.00,VWS V14.01,2013-08-05 17:26:00,
2013-08-05 13:31:00,75.1,60.8,30.06,SW,215,0.0,1.0,61,0.00,,,0.00,VWS V14.01,2013-08-05 17:31:00,
2013-08-05 13:36:00,75.3,61.8,30.06,SSW,213,0.0,1.0,63,0.00,,,0.00,VWS V14.01,2013-08-05 17:36:00,
2013-08-05 13:40:00,75.7,60.8,30.06,ESE,123,0.0,0.0,60,0.00,,,0.00,VWS V14.01,2013-08-05 17:40:00,
2013-08-05 13:46:00,75.9,61.5,30.06,ESE,123,0.0,0.0,61,0.00,,,0.00,VWS V14.01,2013-08-05 17:46:00,
2013-08-05 13:51:00,75.7,59.9,30.06,SSW,213,0.0,3.0,58,0.00,,,0.00,VWS V14.01,2013-08-05 17:51:00,
2013-08-05 13:56:00,75.3,60.0,30.06,SW,217,0.0,1.0,59,0.00,,,0.00,VWS V14.01,2013-08-05 17:56:00,
2013-08-05 14:01:00,75.2,59.4,30.06,SSE,164,0.0,2.0,58,0.00,,,0.00,VWS V14.01,2013-08-05 18:01:00,
2013-08-05 14:06:00,75.3,60.5,30.06,SSE,163,0.0,0.0,60,0.00,,,0.00,VWS V14.01,2013-08-05 18:06:00,
2013-08-05 14:11:00,75.6,60.8,30.06,East,101,0.0,4.0,60,0.00,,,0.00,VWS V14.01,2013-08-05 18:11:00,
2013-08-05 14:16:00,75.9,60.1,30.05,SSW,211,0.0,2.0,58,0.00,,,0.00,VWS V14.01,2013-08-05 18:16:00,
2013-08-05 14:21:00,76.3,60.9,30.05,SE,131,1.0,1.0,59,0.00,,,0.00,VWS V14.01,2013-08-05 18:21:00,
2013-08-05 14:26:00,76.6,60.7,30.05,SE,132,0.0,1.0,58,0.00,,,0.00,VWS V14.01,2013-08-05 18:26:00,
2013-08-05 14:31:00,76.8,60.4,30.04,SSW,199,2.0,4.0,57,0.00,,,0.00,VWS V14.01,2013-08-05 18:31:00,
2013-08-05 14:36:00,76.7,60.3,30.04,SSE,168,0.0,1.0,57,0.00,,,0.00,VWS V14.01,2013-08-05 18:36:00,
2013-08-05 14:41:00,76.6,60.7,30.04,SW,236,2.0,2.0,58,0.00,,,0.00,VWS V14.01,2013-08-05 18:41:00,
2013-08-05 14:46:00,76.5,60.2,30.04,SSE,151,0.0,1.0,57,0.00,,,0.00,VWS V14.01,2013-08-05 18:46:00,
2013-08-05 14:51:00,76.5,60.6,30.04,SSW,209,0.0,0.0,58,0.00,,,0.00,VWS V14.01,2013-08-05 18:51:00,
2013-08-05 14:56:00,76.6,60.7,30.03,SW,215,0.0,0.0,58,0.00,,,0.00,VWS V14.01,2013-08-05 18:56:00,
2013-08-05 15:01:00,76.7,60.3,30.03,ENE,59,0.0,1.0,57,0.00,,,0.00,VWS V14.01,2013-08-05 19:01:00,
2013-08-05 15:06:00,76.8,60.4,30.03,SSW,211,5.0,5.0,57,0.00,,,0.00,VWS V14.01,2013-08-05 19:06:00,
2013-08-05 15:11:00,76.8,60.9,30.03,SSE,156,1.0,1.0,58,0.00,,,0.00,VWS V14.01,2013-08-05 19:11:00,
2013-08-05 15:16:00,76.8,60.9,30.02,SE,142,1.0,1.0,58,0.00,,,0.00,VWS V14.01,2013-08-05 19:16:00,
2013-08-05 15:21:00,76.9,61.0,30.02,ESE,107,0.0,0.0,58,0.00,,,0.00,VWS V14.01,2013-08-05 19:21:00,
2013-08-05 15:26:00,76.9,61.0,30.02,SSE,158,0.0,0.0,58,0.00,,,0.00,VWS V14.01,2013-08-05 19:26:00,
2013-08-05 15:31:00,76.9,60.5,30.02,SSW,198,1.0,2.0,57,0.00,,,0.00,VWS V14.01,2013-08-05 19:31:00,
2013-08-05 15:36:00,76.7,60.3,30.02,SSW,213,0.0,0.0,57,0.00,,,0.00,VWS V14.01,2013-08-05 19:36:00,
2013-08-05 15:41:00,76.7,61.8,30.02,ESE,107,0.0,1.0,60,0.00,,,0.00,VWS V14.01,2013-08-05 19:41:00,
2013-08-05 15:46:00,76.9,62.0,30.02,East,90,1.0,1.0,60,0.00,,,0.00,VWS V14.01,2013-08-05 19:46:00,
2013-08-05 15:51:00,77.0,61.1,30.02,East,90,0.0,1.0,58,0.00,,,0.00,VWS V14.01,2013-08-05 19:51:00,
2013-08-05 15:56:00,76.9,61.0,30.02,East,90,0.0,0.0,58,0.00,,,0.00,VWS V14.01,2013-08-05 19:56:00,
2013-08-05 16:02:00,76.7,61.3,30.02,ESE,117,0.0,0.0,59,0.00,,,0.00,VWS V14.01,2013-08-05 20:02:00,
2013-08-05 16:07:00,76.6,61.7,30.02,ESE,117,0.0,0.0,60,0.00,,,0.00,VWS V14.01,2013-08-05 20:07:00,
2013-08-05 16:12:00,76.4,61.5,30.02,SE,130,0.0,0.0,60,0.00,,,0.00,VWS V14.01,2013-08-05 20:12:00,
2013-08-05 16:17:00,76.4,62.0,30.02,ENE,76,0.0,0.0,61,0.00,,,0.00,VWS V14.01,2013-08-05 20:17:00,
2013-08-05 16:22:00,76.4,61.5,30.02,SSW,212,0.0,0.0,60,0.00,,,0.00,VWS V14.01,2013-08-05 20:22:00,
2013-08-05 16:27:00,76.3,61.9,30.02,SE,144,0.0,0.0,61,0.00,,,0.00,VWS V14.01,2013-08-05 20:27:00,
2013-08-05 16:32:00,76.1,61.7,30.02,SE,144,0.0,0.0,61,0.00,,,0.00,VWS V14.01,2013-08-05 20:32:00,
2013-08-05 16:37:00,75.9,61.5,30.02,SE,146,0.0,0.0,61,0.00,,,0.00,VWS V14.01,2013-08-05 20:37:00,
2013-08-05 16:42:00,75.8,61.9,30.02,SE,146,0.0,0.0,62,0.00,,,0.00,VWS V14.01,2013-08-05 20:42:00,
2013-08-05 16:47:00,75.8,62.3,30.02,SE,146,0.0,0.0,63,0.00,,,0.00,VWS V14.01,2013-08-05 20:47:00,
2013-08-05 16:52:00,75.8,61.9,30.01,SE,146,1.0,1.0,62,0.00,,,0.00,VWS V14.01,2013-08-05 20:52:00,
2013-08-05 16:57:00,75.8,62.3,30.01,SE,146,0.0,0.0,63,0.00,,,0.00,VWS V14.01,2013-08-05 20:57:00,
2013-08-05 17:02:00,75.8,62.3,30.01,SE,145,0.0,1.0,63,0.00,,,0.00,VWS V14.01,2013-08-05 21:02:00,
2013-08-05 17:07:00,75.8,62.3,30.01,SE,145,0.0,0.0,63,0.00,,,0.00,VWS V14.01,2013-08-05 21:07:00,
2013-08-05 17:13:00,75.8,61.9,30.01,SE,145,0.0,0.0,62,0.00,,,0.00,VWS V14.01,2013-08-05 21:13:00,
2013-08-05 17:18:00,75.7,62.2,30.02,SE,145,0.0,0.0,63,0.00,,,0.00,VWS V14.01,2013-08-05 21:18:00,
2013-08-05 17:23:00,75.7,62.2,30.02,SE,145,0.0,0.0,63,0.00,,,0.00,VWS V14.01,2013-08-05 21:23:00,
2013-08-05 17:28:00,75.7,62.2,30.02,SE,146,0.0,0.0,63,0.00,,,0.00,VWS V14.01,2013-08-05 21:28:00,
2013-08-05 17:33:00,75.6,62.6,30.02,SE,146,0.0,0.0,64,0.00,,,0.00,VWS V14.01,2013-08-05 21:33:00,
2013-08-05 17:38:00,75.5,62.0,30.02,SE,146,0.0,0.0,63,0.00,,,0.00,VWS V14.01,2013-08-05 21:38:00,
2013-08-05 17:43:00,75.5,62.0,30.02,SE,146,0.0,0.0,63,0.00,,,0.00,VWS V14.01,2013-08-05 21:43:00,
2013-08-05 17:48:00,75.5,62.5,30.02,SE,146,0.0,0.0,64,0.00,,,0.00,VWS V14.01,2013-08-05 21:48:00,
2013-08-05 17:53:00,75.5,62.5,30.02,SE,146,0.0,0.0,64,0.00,,,0.00,VWS V14.01,2013-08-05 21:53:00,
2013-08-05 17:58:00,75.5,62.5,30.02,SE,146,0.0,0.0,64,0.00,,,0.00,VWS V14.01,2013-08-05 21:58:00,
2013-08-05 18:03:00,75.4,62.4,30.03,SE,146,0.0,0.0,64,0.00,,,0.00,VWS V14.01,2013-08-05 22:03:00,
2013-08-05 18:09:00,75.4,62.4,30.03,SE,146,0.0,0.0,64,0.00,,,0.00,VWS V14.01,2013-08-05 22:09:00,
2013-08-05 18:14:00,75.3,62.7,30.02,SE,146,0.0,0.0,65,0.00,,,0.00,VWS V14.01,2013-08-05 22:14:00,
2013-08-05 18:19:00,75.2,62.6,30.02,SE,146,0.0,0.0,65,0.00,,,0.00,VWS V14.01,2013-08-05 22:19:00,
2013-08-05 18:24:00,75.1,62.5,30.02,SE,146,0.0,0.0,65,0.00,,,0.00,VWS V14.01,2013-08-05 22:24:00,
2013-08-05 18:29:00,75.1,62.5,30.02,SE,146,0.0,0.0,65,0.00,,,0.00,VWS V14.01,2013-08-05 22:29:00,
2013-08-05 18:34:00,75.0,62.5,30.03,SE,146,0.0,0.0,65,0.00,,,0.00,VWS V14.01,2013-08-05 22:34:00,
2013-08-05 18:39:00,74.9,62.3,30.03,SE,146,0.0,0.0,65,0.00,,,0.00,VWS V14.01,2013-08-05 22:39:00,
2013-08-05 18:44:00,74.8,62.7,30.03,SE,146,0.0,0.0,66,0.00,,,0.00,VWS V14.01,2013-08-05 22:44:00,
2013-08-05 18:49:00,74.8,62.7,30.03,SE,146,0.0,0.0,66,0.00,,,0.00,VWS V14.01,2013-08-05 22:49:00,
2013-08-05 18:54:00,74.8,62.3,30.03,SE,146,0.0,0.0,65,0.00,,,0.00,VWS V14.01,2013-08-05 22:54:00,
2013-08-05 18:59:00,74.8,62.7,30.03,SE,146,0.0,0.0,66,0.00,,,0.00,VWS V14.01,2013-08-05 22:59:00,
2013-08-05 19:04:00,74.7,62.6,30.03,SE,146,0.0,0.0,66,0.00,,,0.00,VWS V14.01,2013-08-05 23:04:00,
2013-08-05 19:09:00,74.6,62.5,30.03,SE,146,0.0,0.0,66,0.00,,,0.00,VWS V14.01,2013-08-05 23:09:00,
2013-08-05 19:14:00,74.5,62.4,30.04,SE,146,0.0,0.0,66,0.00,,,0.00,VWS V14.01,2013-08-05 23:14:00,
2013-08-05 19:20:00,74.4,62.3,30.04,SE,146,0.0,0.0,66,0.00,,,0.00,VWS V14.01,2013-08-05 23:20:00,
2013-08-05 19:25:00,74.4,62.7,30.04,SE,146,0.0,0.0,67,0.00,,,0.00,VWS V14.01,2013-08-05 23:25:00,
2013-08-05 19:30:00,74.3,62.6,30.04,SE,146,0.0,0.0,67,0.00,,,0.00,VWS V14.01,2013-08-05 23:30:00,
2013-08-05 19:35:00,74.2,63.0,30.04,SE,146,0.0,0.0,68,0.00,,,0.00,VWS V14.01,2013-08-05 23:35:00,
2013-08-05 19:40:00,74.1,63.3,30.04,SE,146,0.0,0.0,69,0.00,,,0.00,VWS V14.01,2013-08-05 23:40:00,
2013-08-05 19:45:00,74.0,63.6,30.05,SE,146,0.0,0.0,70,0.00,,,0.00,VWS V14.01,2013-08-05 23:45:00,
2013-08-05 19:50:00,73.8,63.0,30.05,SE,146,0.0,0.0,69,0.00,,,0.00,VWS V14.01,2013-08-05 23:50:00,
2013-08-05 19:55:00,73.6,63.2,30.05,SE,146,0.0,0.0,70,0.00,,,0.00,VWS V14.01,2013-08-05 23:55:00,
2013-08-05 20:00:00,73.5,62.7,30.05,SE,146,0.0,0.0,69,0.00,,,0.00,VWS V14.01,2013-08-06 00:00:00,
2013-08-05 20:05:00,73.3,62.9,30.04,SE,146,0.0,0.0,70,0.00,,,0.00,VWS V14.01,2013-08-06 00:05:00,
2013-08-05 20:10:00,73.1,62.7,30.05,SE,146,0.0,0.0,70,0.00,,,0.00,VWS V14.01,2013-08-06 00:10:00,
2013-08-05 20:15:00,73.0,63.0,30.04,SE,146,0.0,0.0,71,0.00,,,0.00,VWS V14.01,2013-08-06 00:15:00,
2013-08-05 20:21:00,72.8,63.3,30.04,SE,146,0.0,0.0,72,0.00,,,0.00,VWS V14.01,2013-08-06 00:21:00,
2013-08-05 20:26:00,72.6,63.5,30.04,SE,146,0.0,0.0,73,0.00,,,0.00,VWS V14.01,2013-08-06 00:26:00,
2013-08-05 20:31:00,72.3,63.2,30.04,SE,146,0.0,0.0,73,0.00,,,0.00,VWS V14.01,2013-08-06 00:31:00,
2013-08-05 20:36:00,72.1,63.8,30.04,SE,146,0.0,0.0,75,0.00,,,0.00,VWS V14.01,2013-08-06 00:36:00,
2013-08-05 20:41:00,71.8,63.5,30.03,SE,146,0.0,0.0,75,0.00,,,0.00,VWS V14.01,2013-08-06 00:41:00,
2013-08-05 20:46:00,71.5,63.5,30.03,SE,146,0.0,0.0,76,0.00,,,0.00,VWS V14.01,2013-08-06 00:46:00,
2013-08-05 20:51:00,71.2,63.3,30.04,SE,146,0.0,0.0,76,0.00,,,0.00,VWS V14.01,2013-08-06 00:51:00,
2013-08-05 20:56:00,71.0,63.4,30.04,SE,146,0.0,0.0,77,0.00,,,0.00,VWS V14.01,2013-08-06 00:56:00,
2013-08-05 21:01:00,70.9,63.7,30.04,SE,146,0.0,0.0,78,0.00,,,0.00,VWS V14.01,2013-08-06 01:01:00,
2013-08-05 21:06:00,70.7,63.1,30.04,SE,146,0.0,0.0,77,0.00,,,0.00,VWS V14.01,2013-08-06 01:06:00,
2013-08-05 21:11:00,70.6,63.4,30.04,SE,146,0.0,0.0,78,0.00,,,0.00,VWS V14.01,2013-08-06 01:11:00,
2013-08-05 21:16:00,70.5,63.3,30.04,SE,146,0.0,0.0,78,0.00,,,0.00,VWS V14.01,2013-08-06 01:16:00,
2013-08-05 21:21:00,70.3,63.1,30.04,SE,146,0.0,0.0,78,0.00,,,0.00,VWS V14.01,2013-08-06 01:21:00,
2013-08-05 21:26:00,70.2,63.0,30.05,SE,146,0.0,0.0,78,0.00,,,0.00,VWS V14.01,2013-08-06 01:26:00,
2013-08-05 21:32:00,70.1,63.3,30.05,SE,146,0.0,0.0,79,0.00,,,0.00,VWS V14.01,2013-08-06 01:32:00,
2013-08-05 21:37:00,70.0,62.8,30.05,SE,146,0.0,0.0,78,0.00,,,0.00,VWS V14.01,2013-08-06 01:37:00,
2013-08-05 21:42:00,69.9,63.1,30.04,SE,146,0.0,0.0,79,0.00,,,0.00,VWS V14.01,2013-08-06 01:42:00,
2013-08-05 21:47:00,69.8,63.0,30.04,SE,146,0.0,0.0,79,0.00,,,0.00,VWS V14.01,2013-08-06 01:47:00,
2013-08-05 21:52:00,69.7,63.3,30.04,SE,146,0.0,0.0,80,0.00,,,0.00,VWS V14.01,2013-08-06 01:52:00,
2013-08-05 21:57:00,69.5,63.1,30.04,SE,146,0.0,0.0,80,0.00,,,0.00,VWS V14.01,2013-08-06 01:57:00,
2013-08-05 22:02:00,69.4,63.0,30.04,SE,146,0.0,0.0,80,0.00,,,0.00,VWS V14.01,2013-08-06 02:02:00,
2013-08-05 22:07:00,69.3,63.2,30.04,SE,146,0.0,0.0,81,0.00,,,0.00,VWS V14.01,2013-08-06 02:07:00,
2013-08-05 22:12:00,69.2,63.1,30.03,SE,146,0.0,0.0,81,0.00,,,0.00,VWS V14.01,2013-08-06 02:12:00,
2013-08-05 22:17:00,69.0,62.9,30.03,SE,146,0.0,0.0,81,0.00,,,0.00,VWS V14.01,2013-08-06 02:17:00,
2013-08-05 22:22:00,68.9,62.8,30.03,SE,146,0.0,0.0,81,0.00,,,0.00,VWS V14.01,2013-08-06 02:22:00,
2013-08-05 22:27:00,68.8,62.7,30.03,SE,146,0.0,0.0,81,0.00,,,0.00,VWS V14.01,2013-08-06 02:27:00,
2013-08-05 22:32:00,68.7,62.6,30.03,SE,146,0.0,0.0,81,0.00,,,0.00,VWS V14.01,2013-08-06 02:32:00,
2013-08-05 22:37:00,68.6,62.9,30.03,SE,146,0.0,0.0,82,0.00,,,0.00,VWS V14.01,2013-08-06 02:37:00,
2013-08-05 22:42:00,68.5,62.8,30.03,SE,146,0.0,0.0,82,0.00,,,0.00,VWS V14.01,2013-08-06 02:42:00,
2013-08-05 22:48:00,68.5,63.1,30.03,SE,146,0.0,0.0,83,0.00,,,0.00,VWS V14.01,2013-08-06 02:48:00,
2013-08-05 22:53:00,68.5,63.1,30.03,SE,146,0.0,0.0,83,0.00,,,0.00,VWS V14.01,2013-08-06 02:53:00,
2013-08-05 22:58:00,68.4,62.7,30.03,SE,146,0.0,0.0,82,0.00,,,0.00,VWS V14.01,2013-08-06 02:58:00,
2013-08-05 23:03:00,68.4,63.0,30.03,SE,146,0.0,0.0,83,0.00,,,0.00,VWS V14.01,2013-08-06 03:03:00,
2013-08-05 23:08:00,68.4,63.0,30.03,SE,146,0.0,0.0,83,0.00,,,0.00,VWS V14.01,2013-08-06 03:08:00,
2013-08-05 23:13:00,68.4,63.0,30.03,SE,146,0.0,0.0,83,0.00,,,0.00,VWS V14.01,2013-08-06 03:13:00,
2013-08-05 23:18:00,68.3,62.6,30.03,SE,146,0.0,0.0,82,0.00,,,0.00,VWS V14.01,2013-08-06 03:18:00,
2013-08-05 23:23:00,68.3,62.6,30.03,SE,146,0.0,0.0,82,0.00,,,0.00,VWS V14.01,2013-08-06 03:23:00,
2013-08-05 23:28:00,68.4,63.0,30.03,SE,146,0.0,0.0,83,0.00,,,0.00,VWS V14.01,2013-08-06 03:28:00,
2013-08-05 23:33:00,68.3,62.9,30.03,SE,146,0.0,0.0,83,0.00,,,0.00,VWS V14.01,2013-08-06 03:33:00,
2013-08-05 23:39:00,68.3,62.9,30.04,SE,146,0.0,0.0,83,0.00,,,0.00,VWS V14.01,2013-08-06 03:39:00,
2013-08-05 23:44:00,68.3,62.9,30.04,SE,146,0.0,0.0,83,0.00,,,0.00,VWS V14.01,2013-08-06 03:44:00,
2013-08-05 23:49:00,68.3,63.3,30.04,SE,146,0.0,0.0,84,0.00,,,0.00,VWS V14.01,2013-08-06 03:49:00,
2013-08-05 23:54:00,68.3,63.3,30.04,SE,146,0.0,0.0,84,0.00,,,0.00,VWS V14.01,2013-08-06 03:54:00,
2013-08-05 23:59:00,68.3,63.3,30.04,SE,146,0.0,0.0,84,0.00,,,0.00,VWS V14.01,2013-08-06 03:59:00,